Spokane Fairchild, WA

3:56 PM PDT on June 27, 2017 (GMT -0700)
Fairchild Air Force Base

Weather History for KSKA - June, 2013

Change the Weather History Date:

Saturday, June 1, 2013

  Actual Average Record
Temperature  
Mean Temperature 55 °F -  
Max Temperature 69 °F 65 °F 84 °F (2007)
Min Temperature 42 °F 45 °F 42 °F (2004)
Degree Days  
Heating Degree Days 10    
Growing Degree Days 5 (Base 50)    
Moisture  
Dew Point 40 °F    
Average Humidity 58    
Maximum Humidity 83    
Minimum Humidity 31    
Precipitation  
Precipitation 0.00 in - - ()
Sea Level Pressure  
Sea Level Pressure 30.09 in    
Wind  
Wind Speed 5 mph (ESE)    
Max Wind Speed 12 mph    
Max Gust Speed -    
Visibility 8 miles    
Events      
Averages and records for this station are not official NWS values.
T = Trace of Precipitation, MM = Missing Value Source: NWS Daily Summary

Daily Weather History Graph

Daily Weather History Graph

Search for Another Location

Airport or City:

Trip Planner

Search our weather history database for the weather conditions in past years. The results will help you decide how hot, cold, wet, or windy it might be!

Date:

Astronomy

Jun. 01, 2013 Rise Set
Actual Time 4:56 AM PDT 8:40 PM PDT
Civil Twilight 4:17 AM PDT 9:20 PM PDT
Nautical Twilight 3:24 AM PDT 10:13 PM PDT
Astronomical Twilight 2:08 AM PDT 11:30 PM PDT
Moon 1:22 AM PDT (6/1) 1:49 PM PDT (6/1)
Length of Visible Light 17h 02m
Length of Day
15h 44m
Last Quarter, 40% of the Moon is Illuminated
Jun 1
Last Quarter
Jun 8
New
Jun 16
First Quarter
Jun 23
Full
Jun 29
Last Quarter

Hourly Weather History & Observations

Time (PDT) Temp. Windchill Dew Point Humidity Pressure Visibility Wind Dir Wind Speed Gust Speed Precip Events Conditions
12:58 AM 50.0 °F - 37.0 °F 61% 30.24 in 10.0 mi NE 2.3 mph - N/A   Clear
1:58 AM 46.2 °F 44.1 °F 36.3 °F 68% 30.23 in 10.0 mi ENE 4.6 mph - N/A   Clear
2:58 AM 44.2 °F 41.8 °F 36.0 °F 73% 30.23 in 10.0 mi NE 4.6 mph - N/A   Clear
3:58 AM 42.8 °F 39.3 °F 36.3 °F 78% 30.24 in 10.0 mi ENE 5.8 mph - N/A   Clear
4:58 AM 42.3 °F 39.4 °F 37.4 °F 83% 30.22 in 10.0 mi NNE 4.6 mph - N/A   Clear
5:58 AM 46.6 °F - 40.3 °F 79% 30.21 in 10.0 mi NNE 8.1 mph - N/A   Mostly Cloudy
6:58 AM 47.7 °F - 41.5 °F 79% 30.21 in 10.0 mi NE 11.5 mph - N/A   Overcast
7:58 AM 50.0 °F - 41.0 °F 71% 30.20 in 10.0 mi NNE 8.1 mph - N/A   Overcast
8:58 AM 54.0 °F - 41.7 °F 63% 30.20 in 10.0 mi NNE 5.8 mph - N/A   Overcast
9:58 AM 57.2 °F - 42.6 °F 58% 30.19 in 10.0 mi NE 5.8 mph - N/A   Mostly Cloudy
10:58 AM 61.7 °F - 42.8 °F 50% 30.16 in 10.0 mi NE 1.2 mph - N/A   Scattered Clouds
11:58 AM 64.0 °F - 40.3 °F 42% 30.14 in 10.0 mi Variable 2.3 mph - N/A   Mostly Cloudy
12:58 PM 65.5 °F - 40.1 °F 39% 30.12 in 10.0 mi South 5.8 mph - N/A   Mostly Cloudy
1:58 PM 66.6 °F - 36.9 °F 33% 30.12 in 10.0 mi Variable 6.9 mph - N/A   Overcast
2:58 PM 67.6 °F - 36.1 °F 31% 30.09 in 10.0 mi ENE 2.3 mph - N/A   Scattered Clouds
3:58 PM 66.7 °F - 36.5 °F 33% 30.08 in 10.0 mi SSW 8.1 mph - N/A   Clear
4:58 PM 68.2 °F - 37.9 °F 33% 30.07 in 10.0 mi ESE 4.6 mph - N/A   Scattered Clouds
5:58 PM 67.3 °F - 38.7 °F 35% 30.04 in 10.0 mi South 6.9 mph - N/A   Overcast
6:58 PM 64.0 °F - 42.6 °F 46% 30.03 in 10.0 mi South 5.8 mph - N/A   Partly Cloudy
7:58 PM 63.0 °F - 42.6 °F 47% 30.01 in 10.0 mi SSE 6.9 mph - N/A   Mostly Cloudy
8:58 PM 60.6 °F - 42.8 °F 52% 30.00 in 9.0 mi SSE 4.6 mph - N/A   Partly Cloudy
9:37 PM 57.2 °F - 42.8 °F 59% 30.01 in 7.0 mi South 5.8 mph - N/A   Clear
9:51 PM 55.4 °F - 42.8 °F 63% 30.01 in 5.0 mi South 6.9 mph - N/A   Haze
9:58 PM 56.5 °F - 42.6 °F 60% 30.00 in 5.0 mi South 4.6 mph - N/A   Haze
10:26 PM 57.2 °F - 42.8 °F 59% 30.00 in 5.0 mi South 2.3 mph - N/A   Haze
10:35 PM 55.4 °F - 42.8 °F 63% 29.99 in 5.0 mi Calm Calm - N/A   Haze
10:40 PM 55.4 °F - 41.0 °F 58% 30.00 in 5.0 mi Calm Calm - N/A   Haze
10:47 PM 55.4 °F - 41.0 °F 58% 29.99 in 5.0 mi Calm Calm - N/A   Haze
10:58 PM 54.9 °F - 42.1 °F 62% 29.99 in 5.0 mi SSE 1.2 mph - N/A   Haze
11:33 PM 50.0 °F - 42.8 °F 76% 29.99 in 5.0 mi SE 4.6 mph - N/A   Haze
11:54 PM 50.0 °F - 41.0 °F 71% 29.98 in 5.0 mi SSE 4.6 mph - N/A   Haze
11:58 PM 49.8 °F - 41.9 °F 74% 29.98 in 5.0 mi SE 3.5 mph - N/A   Haze